This is the latest recevied weather packets stored in our database for station/object N9CQS-15. If no packets are shown the sender has not sent any weather packets the latest 10 day(s).
| Time | Temp. | Humidity | Pressure | Rain* | Wind** | Luminosity | Snow |
|---|---|---|---|---|---|---|---|
| 1777747142 | 13.33° C | 34% | 1020 hPa | 0 mm | - | - | - |
| 1777746542 | 14.44° C | 34% | 1019.9 hPa | 0 mm | - | - | - |
| 1777745943 | 15.56° C | 32% | 1019.8 hPa | 0 mm | - | - | - |
| 1777745342 | 13.33° C | 34% | 1020 hPa | 0 mm | - | - | - |
| 1777744741 | 14.44° C | 32% | 1020 hPa | 0 mm | - | - | - |
| 1777744142 | 14.44° C | 34% | 1020.1 hPa | 0 mm | - | - | - |
| 1777743541 | 14.44° C | 31% | 1020.3 hPa | 0 mm | - | - | - |
| 1777742942 | 13.33° C | 34% | 1020.3 hPa | 0 mm | - | - | - |
| 1777742341 | 13.89° C | 35% | 1020.4 hPa | 0 mm | - | - | - |
| 1777741741 | 14.44° C | 36% | 1020.4 hPa | 0 mm | - | - | - |
| 1777741142 | 14.44° C | 38% | 1020.4 hPa | 0 mm | - | - | - |
| 1777740542 | 13.89° C | 38% | 1020.7 hPa | 0 mm | - | - | - |
| 1777739941 | 13.33° C | 37% | 1021 hPa | 0 mm | - | - | - |
| 1777739342 | 12.78° C | 37% | 1021.1 hPa | 0 mm | - | - | - |
| 1777738742 | 12.78° C | 39% | 1021.1 hPa | 0 mm | - | - | - |
| 1777738141 | 12.78° C | 40% | 1021.1 hPa | 0 mm | - | - | - |
| 1777737541 | 12.22° C | 40% | 1021.1 hPa | 0 mm | - | - | - |
| 1777736941 | 12.22° C | 40% | 1021.2 hPa | 0 mm | - | - | - |
| 1777736341 | 12.22° C | 40% | 1021.1 hPa | 0 mm | - | - | - |
| 1777735741 | 11.67° C | 40% | 1021.1 hPa | 0 mm | - | - | - |
| 1777735141 | 11.11° C | 41% | 1021.2 hPa | 0 mm | - | - | - |
| 1777734542 | 10.56° C | 43% | 1021.2 hPa | 0 mm | - | - | - |
| 1777733941 | 10.56° C | 44% | 1021.1 hPa | 0 mm | - | - | - |
| 1777733341 | 10° C | 45% | 1021.2 hPa | 0 mm | - | - | - |
| 1777732742 | 9.44° C | 49% | 1021 hPa | 0 mm | - | - | - |
* Rain latest hour (hover to see other rain measurements)
** Current wind speed in m/s (hover to see current wind gust speed)